Weather Roundup
Issued by NWS Springfield, MO

Home | Current Version | Previous Version | Text Only | Print | Product List | Glossary On
Versions: 1 2 3 4 5 6 7 8 9 10 11 12 13 14 15 16 17 18 19 20 21 22 23 24 25 26 27 28 29 30 31 32 33 34 35 36 37 38 39 40 41 42 43 44 45 46 47 48 49 50
000
NZUS99 KSGF 190959
HRRSGF

HOURLY WEATHER
NATIONAL WEATHER SERVICE SPRINGFIELD MO
400 AM CST FRI DEC 19 2014

......SGF CWA......

CITY           SKY/WX    TMP DP  RH WIND       PRES   REMARKS
SPRINGFIELD    CLOUDY    38  36  92 E3        30.19F FOG
JOPLIN         FOG       36  35  96 N6        30.21F VSB 1/4 WCI  31
WEST PLAINS    CLOUDY    35  34  96 NE6       30.19F FOG     WCI  30
ROLLA          FOG       32  31  96 E5        30.22F VSB 1/4 WCI  27
OSAGE BEACH    CLOUDY    34  32  93 NE3       30.24S

......SURROUNDING SGF CWA......

CITY           SKY/WX    TMP DP  RH WIND       PRES   REMARKS
CHANUTE        CLOUDY    33  33 100 N5        30.23F FOG     WCI  29
PARSONS        CLOUDY    35  34  96 N5        30.24F WCI  31
COFFEYVILLE    CLOUDY    35  33  92 N8        30.23F FOG     WCI  29
EMPORIA        CLOUDY    29  28  96 N3        30.23F
SILOAM SPRINGS CLOUDY    39  34  81 N5        30.19S VSB 1/2
HARRISON AR    CLOUDY    37  36  96 E6        30.17F WCI  32
NEAR YELLVILLE CLOUDY    37  34  87 NE5       30.18F WCI  34

......KANSAS AND MISSOURI......

CITY           SKY/WX    TMP DP  RH WIND       PRES   REMARKS
KANSAS CTY INT FOG       31  30  96 CALM      30.24F VSB 1
DOWNTOWN KC    CLOUDY    33  30  88 CALM      30.25F
COLUMBIA       CLOUDY    32  30  92 E7        30.25F FOG     WCI  26
SEDALIA        FOG       33  32  96 NE6       30.25S VSB 1   WCI  28
ST JOSEPH      CLOUDY    30  27  88 CALM      30.27F
ST LOUIS       CLOUDY    33  26  75 CALM      30.29S
SPIRIT OF STL  CLOUDY    33  28  81 CALM      30.29S
KIRKSVILLE     CLOUDY    29  26  89 CALM      30.27S
WICHITA        CLOUDY    31  28  89 N5        30.22F WCI  26
TOPEKA         CLOUDY    32  29  88 NW5       30.26F WCI  27
OLATHE         CLOUDY    32  30  92 N3        30.23F FOG

......TENNESSEE......

CITY           SKY/WX    TMP DP  RH WIND       PRES   REMARKS
MEMPHIS        CLOUDY    43  36  76 N5        30.21R
NASHVILLE      CLOUDY    35  29  78 NE6       30.23F WCI  30

......ARKANSAS.......

CITY           SKY/WX    TMP DP  RH WIND       PRES   REMARKS
FAYETTEVILLE   CLOUDY    40  39  97 CALM      30.18R FOG
FT SMITH       CLOUDY    41  38  89 NE5       30.21R
LITTLE ROCK    CLOUDY    42  38  85 NE8       30.22F

......OKLAHOMA.......

CITY           SKY/WX    TMP DP  RH WIND       PRES   REMARKS
TULSA          CLOUDY    38  37  97 N9        30.22F FOG     WCI  31
PONCA CITY     CLOUDY    35  32  88 N8        30.22F FOG     WCI  29
MCALESTER      CLOUDY    43  39  86 NE5       30.20R
OKLAHOMA CITY  FOG       40  37  89 N8        30.17S VSB 3/4 WCI  34

......IOWA............

CITY           SKY/WX    TMP DP  RH WIND       PRES   REMARKS
DES MOINES     FLURRIES  29  24  82 SE3       30.26F
QUAD CITIES    CLEAR     16  12  84 CALM      30.30F

......ILLINOIS........

CITY           SKY/WX    TMP DP  RH WIND       PRES   REMARKS
QUINCY         CLOUDY    28  24  85 CALM      30.28S
CHICAGO        CLOUDY    28  23  81 NW6       30.26S WCI  22




USA.gov is the U.S. government's official web portal to all federal, state and local government web resources and services.